This is the latest recevied weather packets stored in our database for station/object NA9VY-8. If no packets are shown the sender has not sent any weather packets the latest 10 day(s).
| Time | Temp. | Humidity | Pressure | Rain* | Wind** | Luminosity | Snow |
|---|---|---|---|---|---|---|---|
| 1777934994 | 23.89° C | 52% | 1008.4 hPa | 0 mm | - | 82 W/m² | - |
| 1777934690 | 23.89° C | 52% | 1008.4 hPa | 0 mm | - | 87 W/m² | - |
| 1777934387 | 23.89° C | 51% | 1008.3 hPa | 0 mm | - | 99 W/m² | - |
| 1777934083 | 23.89° C | 50% | 1008.5 hPa | 0 mm | - | 116 W/m² | - |
| 1777933779 | 23.89° C | 50% | 1008.7 hPa | 0 mm | - | 126 W/m² | - |
| 1777933477 | 23.89° C | 49% | 1008.8 hPa | 0 mm | - | 165 W/m² | - |
| 1777933174 | 23.89° C | 49% | 1008.4 hPa | 0 mm | - | 146 W/m² | - |
| 1777932871 | 23.89° C | 50% | 1008.8 hPa | 0 mm | - | 153 W/m² | - |
| 1777932568 | 23.89° C | 48% | 1008.5 hPa | 0 mm | - | 130 W/m² | - |
| 1777932265 | 23.89° C | 48% | 1008.7 hPa | 0 mm | - | 122 W/m² | - |
| 1777931962 | 23.89° C | 49% | 1008.8 hPa | 0 mm | - | 125 W/m² | - |
| 1777931659 | 23.89° C | 48% | 1008.8 hPa | 0 mm | - | 125 W/m² | - |
| 1777931355 | 23.89° C | 49% | 1008.8 hPa | 0 mm | - | 130 W/m² | - |
| 1777931052 | 23.89° C | 49% | 1008.4 hPa | 0 mm | - | 136 W/m² | - |
| 1777930749 | 24.44° C | 48% | 1008.6 hPa | 0 mm | - | 143 W/m² | - |
| 1777930444 | 24.44° C | 48% | 1008.7 hPa | 0 mm | - | 165 W/m² | - |
| 1777930142 | 24.44° C | 47% | 1008.8 hPa | 0 mm | - | 197 W/m² | - |
| 1777929837 | 24.44° C | 47% | 1008.7 hPa | 0 mm | - | 225 W/m² | - |
| 1777929536 | 24.44° C | 47% | 1008.7 hPa | 0 mm | - | 187 W/m² | - |
| 1777929231 | 24.44° C | 47% | 1008.8 hPa | 0 mm | - | 180 W/m² | - |
| 1777928929 | 24.44° C | 46% | 1009 hPa | 0 mm | - | 253 W/m² | - |
| 1777928626 | 24.44° C | 46% | 1009.1 hPa | 0 mm | - | 203 W/m² | - |
| 1777928323 | 24.44° C | 49% | 1009.1 hPa | 0 mm | - | 184 W/m² | - |
| 1777928021 | 25° C | 46% | 1009 hPa | 0 mm | - | 175 W/m² | - |
| 1777927719 | 25° C | 45% | 1009 hPa | 0 mm | - | 218 W/m² | - |
* Rain latest hour (hover to see other rain measurements)
** Current wind speed in m/s (hover to see current wind gust speed)